When you browse on this site, cookies collect data to enhance your experience and personalize the content and advertising you see.
Visit our Privacy Policy to learn more. By continuing to use the site, you agree to this use of cookies and data.
  • In Czech Republic
  • List of Countries
  • For 7 days
  • Water Temperature
  • Satellite Maps
  • Weather Map
  • Weather Widgets
  • user-avatar
    Login

    Hourly Weather Acapulco

    Today, 21 July, Sunday

    Time Temperature Precipitation Wind Pressure Humidity
    00:00 +27°C° 0.4 mm 2 mps 755 mmHg 85%
    01:00 +27°C° 0.4 mm 2 mps 755 mmHg 84%
    02:00 +27°C° 0.4 mm 2 mps 755 mmHg 83%
    03:00 +27°C° 0 mm 2 mps 755 mmHg 81%
    04:00 +27°C° 0 mm 2 mps 754 mmHg 79%
    05:00 +27°C° 0 mm 2 mps 754 mmHg 77%
    06:00 +29°C° 0 mm 1 mps 755 mmHg 70%
    07:00 +31°C° 0 mm 1 mps 755 mmHg 62%
    08:00 +32°C° 0 mm 0 mps 756 mmHg 54%
    09:00 +35°C° 0 mm 1 mps 756 mmHg 52%
    10:00 +37°C° 0 mm 2 mps 755 mmHg 49%
    11:00 +37°C° 0 mm 4 mps 755 mmHg 46%
    12:00 +37°C° 0 mm 4 mps 754 mmHg 48%
    13:00 +37°C° 0 mm 5 mps 754 mmHg 50%
    14:00 +36°C° 0 mm 6 mps 753 mmHg 52%
    15:00 +35°C° 0 mm 6 mps 753 mmHg 57%
    16:00 +34°C° 0 mm 5 mps 753 mmHg 62%
    17:00 +33°C° 0 mm 5 mps 752 mmHg 67%
    18:00 +32°C° 0 mm 5 mps 753 mmHg 73%
    19:00 +30°C° 0 mm 4 mps 754 mmHg 79%
    20:00 +28°C° 0 mm 4 mps 755 mmHg 85%
    21:00 +28°C° 0 mm 4 mps 755 mmHg 84%
    22:00 +28°C° 0 mm 4 mps 755 mmHg 84%
    23:00 +28°C° 0 mm 4 mps 755 mmHg 83%

    Tomorrow, 22 July, Monday

    Time Temperature Precipitation Wind Pressure Humidity
    00:00 +27°C° 0 mm 3 mps 755 mmHg 82%
    01:00 +27°C° 0 mm 3 mps 755 mmHg 81%
    02:00 +27°C° 0 mm 3 mps 755 mmHg 80%
    03:00 +27°C° 0 mm 2 mps 754 mmHg 80%
    04:00 +27°C° 0 mm 2 mps 754 mmHg 79%
    05:00 +26°C° 0 mm 2 mps 754 mmHg 78%
    06:00 +29°C° 0 mm 1 mps 755 mmHg 73%
    07:00 +31°C° 0 mm 1 mps 755 mmHg 67%
    08:00 +33°C° 0 mm 1 mps 755 mmHg 61%
    09:00 +34°C° 0 mm 1 mps 755 mmHg 57%
    10:00 +36°C° 0 mm 2 mps 755 mmHg 52%
    11:00 +38°C° 0 mm 2 mps 755 mmHg 48%
    12:00 +37°C° 0.1 mm 3 mps 754 mmHg 51%
    13:00 +37°C° 0.1 mm 4 mps 754 mmHg 54%
    14:00 +36°C° 0.1 mm 5 mps 753 mmHg 58%
    15:00 +35°C° 0.2 mm 5 mps 753 mmHg 63%
    16:00 +34°C° 0.2 mm 5 mps 753 mmHg 68%
    17:00 +33°C° 0.2 mm 5 mps 752 mmHg 73%
    18:00 +32°C° 0.1 mm 4 mps 753 mmHg 77%
    19:00 +30°C° 0.1 mm 4 mps 754 mmHg 82%
    20:00 +29°C° 0.1 mm 3 mps 755 mmHg 86%
    21:00 +28°C° 2.1 mm 3 mps 755 mmHg 89%
    22:00 +28°C° 2.1 mm 4 mps 756 mmHg 91%
    23:00 +27°C° 2.1 mm 4 mps 757 mmHg 94%

    Day after tomorrow, 23 July, Tuesday

    Time Temperature Precipitation Wind Pressure Humidity
    00:00 +27°C° 0.6 mm 3 mps 756 mmHg 93%
    01:00 +27°C° 0.6 mm 2 mps 756 mmHg 92%
    02:00 +27°C° 0.6 mm 2 mps 756 mmHg 91%
    03:00 +27°C° 0 mm 2 mps 756 mmHg 90%
    04:00 +27°C° 0 mm 1 mps 755 mmHg 88%
    05:00 +27°C° 0 mm 1 mps 755 mmHg 87%
    06:00 +28°C° 0 mm 1 mps 756 mmHg 81%
    07:00 +30°C° 0 mm 1 mps 756 mmHg 75%
    08:00 +31°C° 0 mm 1 mps 756 mmHg 69%
    09:00 +33°C° 0 mm 1 mps 756 mmHg 61%
    10:00 +36°C° 0 mm 2 mps 756 mmHg 53%
    11:00 +38°C° 0 mm 2 mps 756 mmHg 45%
    12:00 +37°C° 0.1 mm 3 mps 755 mmHg 50%
    13:00 +36°C° 0.1 mm 3 mps 754 mmHg 55%
    14:00 +35°C° 0.1 mm 4 mps 754 mmHg 59%
    15:00 +34°C° 0.4 mm 3 mps 754 mmHg 65%
    16:00 +33°C° 0.4 mm 3 mps 754 mmHg 71%
    17:00 +31°C° 0.4 mm 2 mps 754 mmHg 76%
    18:00 +30°C° 0.5 mm 2 mps 755 mmHg 80%
    19:00 +29°C° 0.5 mm 1 mps 755 mmHg 84%
    20:00 +26°C° 0.5 mm 0 mps 756 mmHg 88%
    21:00 +27°C° 0.2 mm 1 mps 756 mmHg 89%
    22:00 +27°C° 0.2 mm 1 mps 757 mmHg 90%
    23:00 +27°C° 0.2 mm 2 mps 757 mmHg 91%

    24 July, Wednesday

    Time Temperature Precipitation Wind Pressure Humidity
    00:00 +27°C° 1.4 mm 2 mps 756 mmHg 91%
    01:00 +26°C° 1.4 mm 3 mps 756 mmHg 91%
    02:00 +26°C° 1.4 mm 4 mps 756 mmHg 91%
    03:00 +26°C° 0.1 mm 3 mps 756 mmHg 90%
    04:00 +26°C° 0.1 mm 3 mps 756 mmHg 88%
    05:00 +26°C° 0.1 mm 3 mps 756 mmHg 87%
    06:00 +26°C° 0 mm 2 mps 756 mmHg 86%
    07:00 +27°C° 0 mm 2 mps 757 mmHg 85%
    08:00 +27°C° 0 mm 1 mps 757 mmHg 83%
    09:00 +29°C° 0 mm 1 mps 757 mmHg 74%
    10:00 +31°C° 0 mm 1 mps 757 mmHg 64%
    11:00 +33°C° 0 mm 1 mps 757 mmHg 54%
    12:00 +34°C° 0 mm 1 mps 756 mmHg 53%
    13:00 +35°C° 0 mm 2 mps 755 mmHg 51%
    14:00 +36°C° 0 mm 3 mps 754 mmHg 50%
    15:00 +34°C° 0 mm 2 mps 754 mmHg 55%
    16:00 +32°C° 0 mm 2 mps 754 mmHg 60%
    17:00 +31°C° 0 mm 2 mps 754 mmHg 66%
    18:00 +30°C° 0.1 mm 2 mps 754 mmHg 71%
    19:00 +29°C° 0.1 mm 2 mps 754 mmHg 77%
    20:00 +27°C° 0.1 mm 2 mps 755 mmHg 83%
    21:00 +27°C° 0 mm 1 mps 755 mmHg 84%
    22:00 +27°C° 0 mm 1 mps 755 mmHg 84%
    23:00 +27°C° 0 mm 1 mps 756 mmHg 85%

    25 July, Thursday

    Time Temperature Precipitation Wind Pressure Humidity
    00:00 +27°C° 0.1 mm 1 mps 755 mmHg 86%
    01:00 +27°C° 0.1 mm 1 mps 755 mmHg 87%
    02:00 +26°C° 0.1 mm 1 mps 755 mmHg 88%
    03:00 +26°C° 0.1 mm 2 mps 755 mmHg 88%
    04:00 +26°C° 0.1 mm 2 mps 755 mmHg 88%
    05:00 +26°C° 0.1 mm 2 mps 755 mmHg 88%
    06:00 +28°C° 0 mm 1 mps 755 mmHg 81%
    07:00 +30°C° 0 mm 1 mps 755 mmHg 73%
    08:00 +30°C° 0 mm 0 mps 756 mmHg 66%
    09:00 +33°C° 0 mm 1 mps 755 mmHg 61%
    10:00 +35°C° 0 mm 2 mps 755 mmHg 56%
    11:00 +36°C° 0 mm 3 mps 755 mmHg 51%
    12:00 +36°C° 0.2 mm 3 mps 754 mmHg 56%
    13:00 +35°C° 0.2 mm 4 mps 754 mmHg 61%
    14:00 +34°C° 0.2 mm 4 mps 753 mmHg 66%
    15:00 +33°C° 0.1 mm 4 mps 753 mmHg 69%
    16:00 +33°C° 0.1 mm 4 mps 753 mmHg 72%
    17:00 +32°C° 0.1 mm 4 mps 753 mmHg 76%
    18:00 +30°C° 0.2 mm 3 mps 754 mmHg 80%
    19:00 +29°C° 0.2 mm 3 mps 754 mmHg 85%
    20:00 +27°C° 0.2 mm 3 mps 755 mmHg 90%
    21:00 +27°C° 0.3 mm 2 mps 755 mmHg 90%
    22:00 +27°C° 0.3 mm 2 mps 755 mmHg 90%
    23:00 +27°C° 0.3 mm 2 mps 756 mmHg 91%

    26 July, Friday

    Time Temperature Precipitation Wind Pressure Humidity
    00:00 +27°C° 1 mm 2 mps 755 mmHg 92%
    01:00 +26°C° 1 mm 2 mps 755 mmHg 93%
    02:00 +26°C° 1 mm 2 mps 755 mmHg 93%
    03:00 +26°C° 0.1 mm 2 mps 755 mmHg 92%
    04:00 +26°C° 0.1 mm 2 mps 755 mmHg 91%
    05:00 +26°C° 0.1 mm 2 mps 755 mmHg 90%
    06:00 +28°C° 0 mm 1 mps 755 mmHg 84%
    07:00 +29°C° 0 mm 1 mps 756 mmHg 77%
    08:00 +29°C° 0 mm 0 mps 756 mmHg 71%
    09:00 +32°C° 0 mm 1 mps 756 mmHg 66%
    10:00 +33°C° 0 mm 1 mps 755 mmHg 60%
    11:00 +36°C° 0 mm 2 mps 755 mmHg 55%
    12:00 +35°C° 0.2 mm 2 mps 754 mmHg 57%
    13:00 +35°C° 0.2 mm 3 mps 754 mmHg 60%
    14:00 +35°C° 0.2 mm 4 mps 753 mmHg 63%
    15:00 +34°C° 0.5 mm 3 mps 753 mmHg 69%
    16:00 +33°C° 0.5 mm 3 mps 753 mmHg 76%
    17:00 +30°C° 0.5 mm 3 mps 754 mmHg 82%
    18:00 +29°C° 1 mm 2 mps 754 mmHg 85%
    19:00 +28°C° 1 mm 2 mps 755 mmHg 87%
    20:00 +27°C° 1 mm 1 mps 755 mmHg 90%
    21:00 +27°C° 1.1 mm 1 mps 756 mmHg 90%
    22:00 +27°C° 1.1 mm 1 mps 756 mmHg 90%
    23:00 +27°C° 1.1 mm 1 mps 756 mmHg 90%
    Show more